Location: Clarks Summit,Pa.
(41.5000°N, 75.6000°W)
Time: 12:19:34
(UTC-04:00)

Envisat - Visible Passes

Search period start: 19 September 2018 00:00
Search period end: 29 September 2018 00:00
Orbit: 764 x 766 km, 98.2° (Epoch: 19 September)

Date Brightness Start Highest point End Pass type
(mag) Time Alt. Az. Time Alt. Az. Time Alt. Az.
19 Sep 3.0 20:05:42 10° SSE 20:10:46 86° WSW 20:15:54 10° NNW visible
20 Sep 3.4 19:29:22 10° SE 19:34:09 43° ENE 19:38:57 10° N visible
20 Sep 5.3 21:09:27 10° SW 21:13:20 22° W 21:17:15 10° NW visible
21 Sep 3.9 20:31:29 10° S 20:36:22 48° W 20:41:18 10° NNW visible
22 Sep 2.9 19:54:33 10° SSE 19:59:36 76° ENE 20:04:42 10° N visible
22 Sep 5.9 21:37:09 10° WSW 21:39:11 12° W 21:41:13 10° WNW visible
23 Sep 3.6 19:18:29 10° SE 19:23:02 35° ENE 19:27:37 10° N visible
23 Sep 4.9 20:57:46 10° SSW 21:02:04 28° W 21:06:24 10° NW visible
24 Sep 3.5 20:20:10 10° S 20:25:11 62° W 20:30:13 10° NNW visible
25 Sep 3.0 19:43:29 10° SSE 19:48:27 60° ENE 19:53:28 10° N visible
25 Sep 5.7 21:24:50 10° SW 21:27:52 16° W 21:30:56 10° NW visible
26 Sep 4.5 20:46:13 10° SSW 20:50:49 35° W 20:55:28 10° NNW visible
27 Sep 3.1 20:08:55 10° S 20:13:59 78° WSW 20:19:05 10° NNW visible
28 Sep 3.2 19:32:29 10° SE 19:37:19 48° ENE 19:42:12 10° N visible
28 Sep 5.4 21:12:54 10° SW 21:16:35 20° W 21:20:18 10° NW visible
